Regional Weather Roundup
Issued by NWS

Home | Current Version | Previous Version | Text Only | Print | Product List | Glossary Off
Versions: 1 2 3 4 5 6 7 8 9 10 11 12 13 14 15 16 17 18 19 20 21 22 23 24 25 26 27 28 29 30 31 32 33 34 35 36 37 38 39 40 41 42 43 44 45 46 47 48 49 50

087
ASUS45 KSLC 272310
RWRUT

UTAH REGIONAL WEATHER ROUNDUP
NATIONAL WEATHER SERVICE SALT LAKE CITY UT
500 PM MDT WED JUL 27 2016

UTZ001>011-023>025-280000-

NORTHERN UTAH

CITY           SKY/WX    TMP DP  RH WIND       PRES   REMARKS
BRIGHAM CITY     N/A     97  19   6 SW7       30.06F HX  90
HILL AFB       SUNNY     95  28   9 W10       30.13F
LOGAN          SUNNY     96  32  10 MISG      30.08F HX  90
OGDEN          SUNNY     97  31   9 VRB6      30.08F HX  91
PROVO AIRPORT  MOSUNNY   97  41  14 N7        30.09F HX  92
SALT LAKE CITY MOSUNNY  101  30   8 N12G17    30.06F HX  94
VERNAL         SUNNY     98  28   8 E8        30.10F HX  92
WENDOVER       SUNNY     99  34  10 SE9       30.05F HX  93
HEBER CITY     SUNNY     97  27   8 NW9       30.17F HX  90

$$

UTZ012>022-026-027-280000-

SOUTHERN/CENTRAL UTAH

CITY           SKY/WX    TMP DP  RH WIND       PRES   REMARKS
BLANDING       SUNNY     94  34  12 CALM      30.22F
BRYCE CANYON   MOSUNNY   90  29  11 S13G24    30.33F
CEDAR CITY     SUNNY    100  22   6 NW6       30.14F HX  93
DELTA          SUNNY    100  23   6 NW12      30.08F HX  93
MILFORD        SUNNY    103  22   5 N10       30.09F HX  95
MOAB/CYNLANDS  SUNNY    103  28   7 NW8G22    30.02F HX  96
PRICE          SUNNY     97  21   6 NW15G25   30.16F HX  90
ST GEORGE      CLEAR    111  43  10 SW13      29.89F HX 106

$$

REGIONAL REPORTS     COLORADO/ARIZONA

CITY           SKY/WX    TMP DP  RH WIND       PRES   REMARKS
CRAIG, CO      SUNNY     94  17   6 W8        30.19F
GRAND JUNCTION SUNNY    100  37  11 W12       30.06F HX  95
RIFLE          SUNNY     96  32  10 S9G22     30.11F HX  90
MONTROSE       SUNNY     95  30  10 NW10G17   30.17F
CORTEZ         SUNNY     96  34  11 N12G20    30.15F HX  91
PAGE, AZ       SUNNY    106  26   6 N7        30.00F HX  98
GRAND CANYON   SUNNY     96  28   9 VRB5      30.24F HX  90
KINGMAN        TSTM      83  56  39 N30G54    30.01R
FLAGSTAFF      MOSUNNY   88  32  13 E6        30.27F

$$

REGIONAL REPORTS    NEVADA/IDAHO/WYOMING

CITY           SKY/WX    TMP DP  RH WIND       PRES   REMARKS
LAS VEGAS, NV  MOSUNNY  113  39   8 N5        29.78F HX 106
ELY            SUNNY     94  18   6 VRB6G16   30.20F
ELKO           SUNNY    100  15   4 NW16G23   30.11F HX  92
POCATELLO, ID  SUNNY     96  33  11 SW14G20   30.09F HX  91
BURLEY         SUNNY     94  40  15 VRB3      30.03F HX  90
EVANSTON, WY   SUNNY     88  21   8 NW15G23   30.31F
ROCK SPRINGS   SUNNY     91   6   4 W17       30.23F
KEMMERER         N/A    N/A N/A N/A W15G24    30.32F

$$




USA.gov is the U.S. government's official web portal to all federal, state and local government web resources and services.